ONEWEB-0061 (45428 NORAD) Tracking and Keplerian Element Data

This shows tracking and keplerian element data for the satellite.

Feedback or suggestion? Click here.




ElementValue
Catalog45428
NameONEWEB-0061
Epoch Orbit3211
Epoch Day297.91667824
Epoch Year2020
RAAN71.7231
Inclination87.8081
Eccentricity0.0026337
Argument of Perigee243.7064
Mean Anonmoly100.365
Mean Motion13.82999037
Decay Rate-0.00016956
L11 45428U 20020E 20297.91667824 -.00016956 00000-0 -15540-1 0 9995
L22 45428 87.8081 71.7231 0026337 243.7064 100.3650 13.82999037 32118

Live tracking and technical data element details for ONEWEB-0061 (NORAD 45428). ONEWEB-0061 can be tracked NOW for your location showing map with azimuth and elevation plus other details from your city location.

Track the satellite on the map from your city or location and see movement details for azimuth, elevation, latitude, longitude, range, height, and movement on the map or in text.







IsCatalogInMostPopularTable: catalog: 45428, numindb: 47
Update: records affected: 1



GetName: 45428 ONEWEB-0061

Hit Count: updated at: Sat, 24 Oct 2020 23:38:39 GMT